User: anonymous   Login
Location: Unspecified
(0.0000°N, 0.0000°E)
Time: 21:52:21
(UTC+00:00)
Language:

TBA - TO BE ASSIGNED - Orbit

View from above orbital plane
View from above orbital plane
View from above satellite
View from above satellite

Ground track
Ground track

The orbit is defined by the following mean orbital elements,

1 67992U          26145.59284903 +.00000000 +00000-0 +48697-3 0 00001
2 67992  43.0030 334.7330 0001176 265.4085  94.6632 15.27594080    04
Epoch (UTC): 25 May 2026 14:13:42
Eccentricity: 0.0001176
inclination: 43.0030°
perigee height: 482 km
apogee height: 484 km
right ascension of ascending node: 334.7330°
argument of perigee: 265.4085°
revolutions per day: 15.27594080
mean anomaly at epoch: 94.6632°

The dashed part of the orbit path shows where the satellite is in the earth's shadow,  

DLR